Location: Lawrence
(38.9720°N, 95.2350°W)
Time: 05:08:36
(UTC-05:00)

Amateur Radio Satellites - All Passes

Search period start: 28 April 2017 04:38
Search period end: 29 April 2017 04:38
Location: Lawrence, 38.9720°N, 95.2350°W

Satellite Date Start Highest point End Downlink Frequencies (MHz)
Time Altitude Azimuth
PCSat 28 Apr 04:43:00 04:45:37 13° 318° (NW) 04:48:14 145.827
ITUPSAT 1 28 Apr 04:45:25 04:48:26 17° 267° (W) 04:51:27 437.325
KKS-1 28 Apr 05:19:59 05:24:27 75° 258° (WSW) 05:28:56 437.445
MOZHAYETS 4 28 Apr 05:21:49 05:24:06 14° 269° (W) 05:26:25
ITAMSAT 1 28 Apr 05:33:42 05:38:26 37° 291° (WNW) 05:43:08 435.822/435.867
STARS 28 Apr 05:47:20 05:51:45 87° 260° (W) 05:56:10 437.465
AO-7 28 Apr 05:50:00 05:58:06 59° 294° (WNW) 06:06:13 .
SO-50 28 Apr 05:57:44 06:01:38 27° 113° (ESE) 06:05:29 436.795
YUBILEINY 28 Apr 06:12:19 06:20:21 41° 286° (WNW) 06:28:29 435.215
CUBESAT XI-V 28 Apr 06:15:28 06:19:04 22° 266° (W) 06:22:41 437.345
DOVE 4 28 Apr 06:17:53 06:20:58 18° 92° (E) 06:23:55 437.250
M-CUBED/EXP-1 PRIME 28 Apr 06:21:40 06:23:11 11° 57° (ENE) 06:24:41 437.505
CUTE-I 28 Apr 06:53:03 06:57:27 26° 95° (E) 07:01:49 437.470
XW-2D 28 Apr 06:59:35 07:03:01 31° 97° (E) 07:06:27 145.860 - 145.880
Tancredo 1 28 Apr 07:02:41 07:03:59 12° 129° (SE) 07:05:18 437.200
XW-2B 28 Apr 07:06:28 07:10:02 37° 98° (E) 07:13:35 145.730 - 145.750
KAITUO 1B 28 Apr 07:12:09 07:15:37 34° 97° (E) 07:19:06 145.475/437.950
RS-15 28 Apr 07:12:38 07:24:04 54° 110° (ESE) 07:35:51 29.354- 29.394
HO-68 28 Apr 07:13:32 07:15:37 11° 88° (E) 07:17:40 435.675
XW-2C 28 Apr 07:18:18 07:22:04 54° 100° (E) 07:25:48 145.795 - 145.815
LilacSat-2 28 Apr 07:19:12 07:23:00 59° 100° (E) 07:26:48 437.200
STRAND 1 28 Apr 07:28:26 07:33:17 45° 71° (ENE) 07:38:08 437.568
ISS 28 Apr 07:35:12 07:37:45 21° 132° (SE) 07:40:19 437.550
SO-50 28 Apr 07:37:49 07:41:58 32° 309° (NW) 07:46:06 436.795
XW-2F 28 Apr 07:42:32 07:46:20 74° 284° (WNW) 07:50:08 145.980 - 146.000
AO-7 28 Apr 07:45:59 07:49:09 13° 314° (NW) 07:52:19 .
NUDT-PHONESAT 28 Apr 07:48:57 07:52:40 76° 283° (WNW) 07:56:24 437.300
M-CUBED/EXP-1 PRIME 28 Apr 07:52:15 07:56:52 86° 249° (WSW) 08:01:35 437.505
DOVE 4 28 Apr 07:54:38 07:58:50 37° 289° (WNW) 08:02:49 437.250
AAUSAT CUBESAT 2 28 Apr 08:23:41 08:24:34 11° 90° (E) 08:25:27 437.432
CUBEBUG 2 28 Apr 08:24:58 08:27:46 17° 94° (E) 08:30:35 437.445
CUTE-I 28 Apr 08:32:42 08:37:32 37° 291° (WNW) 08:42:22 437.470
XW-2D 28 Apr 08:34:29 08:36:57 17° 292° (WNW) 08:39:24 145.860 - 145.880
Tancredo 1 28 Apr 08:36:29 08:39:32 57° 324° (NW) 08:42:35 437.200
CUTE 1.7 + AOD 2 28 Apr 08:36:49 08:41:03 55° 99° (E) 08:45:15 437.475
XW-2B 28 Apr 08:41:47 08:43:53 14° 293° (WNW) 08:46:00 145.730 - 145.750
KAITUO 1B 28 Apr 08:47:08 08:49:20 15° 293° (WNW) 08:51:32 145.475/437.950
SEEDS 28 Apr 08:53:33 08:57:45 55° 100° (E) 09:01:54 437.485
XW-2C 28 Apr 08:55:10 08:55:46 10° 295° (WNW) 08:56:21 145.795 - 145.815
HO-68 28 Apr 08:57:07 09:04:21 77° 104° (ESE) 09:11:33 435.675
ZACube-1 28 Apr 09:00:05 09:02:30 15° 92° (E) 09:04:56 437.345
XW-2A 28 Apr 09:05:22 09:08:38 51° 285° (WNW) 09:11:54 145.665 - 145.685
AO-73 28 Apr 09:05:47 09:08:21 15° 93° (E) 09:10:56 145.935
STRAND 1 28 Apr 09:09:01 09:12:39 20° 266° (W) 09:16:19 437.568
ISS 28 Apr 09:11:01 09:14:05 37° 328° (NNW) 09:17:09 437.550
PRISM 28 Apr 09:17:02 09:19:46 17° 66° (ENE) 09:22:31 437.425
Oscar 11 28 Apr 09:18:57 09:21:59 18° 93° (E) 09:25:01 .
RS-15 28 Apr 09:25:08 09:36:45 50° 313° (NW) 09:48:42 29.354- 29.394
UWE-3 28 Apr 09:43:21 09:47:34 85° 99° (E) 09:51:53 435.000/436.395/437.385
AAUSAT CUBESAT 2 28 Apr 09:56:14 10:00:22 57° 285° (WNW) 10:04:27 437.432
TIGRISAT 28 Apr 09:59:34 10:03:19 29° 70° (ENE) 10:07:02 435.000
CUBEBUG 2 28 Apr 10:00:40 10:04:29 35° 288° (WNW) 10:08:20 437.445
FO-29 28 Apr 10:02:13 10:07:43 34° 69° (ENE) 10:12:43 435.910
PCSat 28 Apr 10:04:20 10:05:54 11° 40° (NE) 10:07:27 145.827
CUTE 1.7 + AOD 2 28 Apr 10:14:28 10:16:23 13° 295° (WNW) 10:18:18 437.475
Tancredo 1 28 Apr 10:14:30 10:15:57 13° 342° (NNW) 10:17:26 437.200
UNISAT 6 28 Apr 10:20:44 10:25:01 54° 74° (ENE) 10:29:14 437.425
O/OREOS (USA 219) 28 Apr 10:21:28 10:25:53 50° 107° (ESE) 10:30:21 437.305
DELFI C3 28 Apr 10:24:33 10:27:59 27° 96° (E) 10:31:22 145.870
SEEDS 28 Apr 10:31:03 10:32:56 13° 295° (WNW) 10:34:48 437.485
ZACube-1 28 Apr 10:34:57 10:38:58 43° 287° (WNW) 10:43:03 437.345
OBJECT BX 28 Apr 10:38:57 10:42:10 28° 97° (E) 10:45:21 145.990 - 145.960
AO-73 28 Apr 10:40:45 10:44:44 41° 287° (WNW) 10:48:47 145.935
HO-68 28 Apr 10:46:16 10:51:17 21° 302° (WNW) 10:56:18 435.675
ISS 28 Apr 10:50:09 10:51:19 11° 347° (NNW) 10:52:28 437.550
PRISM 28 Apr 10:50:53 10:54:44 37° 262° (W) 10:58:38 437.425
AIST 2D 28 Apr 10:53:00 10:54:14 12° 67° (ENE) 10:55:29 435.315
Oscar 11 28 Apr 10:54:14 10:58:12 36° 289° (WNW) 11:02:11 .
EO-79 28 Apr 11:09:27 11:11:22 13° 64° (ENE) 11:13:17 145.935-145.965
DUCHIFAT 1 28 Apr 11:10:29 11:11:14 10° 63° (ENE) 11:12:00 145.980
TIGRISAT 28 Apr 11:36:32 11:39:59 23° 265° (W) 11:43:24 435.000
LO-87 28 Apr 11:37:13 11:39:44 18° 94° (E) 11:42:13 145.935 - 145.965
AO-85 28 Apr 11:39:15 11:41:29 14° 110° (ESE) 11:43:40 145.980
RS-15 28 Apr 11:44:39 11:53:27 21° 345° (NNW) 12:02:16 29.354- 29.394
PCSat 28 Apr 11:44:59 11:50:24 63° 60° (ENE) 11:55:45 145.827
POLYITAN 1 28 Apr 11:47:07 11:50:54 33° 71° (ENE) 11:54:42 437.675
FO-29 28 Apr 11:47:08 11:52:45 33° 262° (W) 11:57:52 435.910
QB50P2 28 Apr 11:53:35 11:57:35 43° 73° (ENE) 12:01:35 145.880/145.840
DELFI C3 28 Apr 11:59:33 12:02:35 21° 291° (WNW) 12:05:36 145.870
UNISAT 6 28 Apr 12:00:21 12:02:01 12° 269° (W) 12:03:41 437.425
O/OREOS (USA 219) 28 Apr 12:02:37 12:05:35 17° 304° (NW) 12:08:35 437.305
BUGSAT 1 28 Apr 12:03:26 12:05:24 13° 65° (ENE) 12:07:21 437.445
OBJECT BX 28 Apr 12:13:13 12:15:37 17° 292° (WNW) 12:18:00 145.990 - 145.960
NANOSAT C BR1 28 Apr 12:13:25 12:17:34 63° 75° (ENE) 12:21:43 145.865
AIST 2D 28 Apr 12:23:51 12:27:05 36° 262° (W) 12:30:20 435.315
ESTCUBE 1 28 Apr 12:34:26 12:38:53 51° 100° (E) 12:43:17 437.505/2401.250
VELOX 1 28 Apr 12:40:41 12:43:18 15° 93° (E) 12:45:54 145.980
DUCHIFAT 1 28 Apr 12:42:10 12:46:20 66° 258° (WSW) 12:50:30 145.980
EO-79 28 Apr 12:42:32 12:46:39 52° 260° (W) 12:50:47 145.935-145.965
BEESAT 3 28 Apr 12:42:45 12:43:15 10° 107° (ESE) 12:43:45 437.485
LO-87 28 Apr 13:10:15 13:13:08 23° 289° (WNW) 13:16:00 145.935 - 145.965
AO-85 28 Apr 13:17:20 13:21:31 50° 304° (NW) 13:25:28 145.980
POLYITAN 1 28 Apr 13:23:49 13:26:45 18° 266° (W) 13:29:42 437.675
DX 1 28 Apr 13:25:56 13:28:52 18° 94° (E) 13:31:48 434.975-435.025
SPROUT 28 Apr 13:27:24 13:31:31 49° 100° (E) 13:35:37 437.525
Tancredo 1 28 Apr 13:27:52 13:29:57 17° 23° (NNE) 13:32:03 437.200
PCSat 28 Apr 13:29:56 13:33:12 16° 256° (WSW) 13:36:28 145.827
QB50P2 28 Apr 13:31:17 13:33:34 14° 268° (W) 13:35:52 145.880/145.840
50 SAT 28 Apr 13:31:22 13:34:28 29° 97° (E) 13:37:31 437.505
BUGSAT 1 28 Apr 13:36:18 13:40:20 49° 260° (W) 13:44:20 437.445
Oscar 19 28 Apr 13:40:44 13:45:45 55° 72° (ENE) 13:50:49 437.125/150
Gurwin Techsat 1B 28 Apr 13:57:59 14:03:03 47° 71° (ENE) 14:08:08 435.225
RS-15 28 Apr 14:02:58 14:12:19 24° 21° (NNE) 14:21:26 29.354- 29.394
ISS 28 Apr 14:03:43 14:06:27 24° 28° (NNE) 14:09:10 437.550
ESTCUBE 1 28 Apr 14:12:36 14:15:14 15° 295° (WNW) 14:17:50 437.505/2401.250
VELOX 1 28 Apr 14:15:44 14:19:57 44° 288° (WNW) 14:24:07 145.980
BEESAT 3 28 Apr 14:16:22 14:20:16 61° 303° (WNW) 14:24:14 437.485
BEESAT 2 28 Apr 14:19:50 14:23:39 50° 117° (ESE) 14:27:32 435.950
UKube-1 28 Apr 14:23:52 14:28:06 55° 101° (E) 14:32:19 .
YUBILEINY 28 Apr 14:28:01 14:33:46 19° 64° (ENE) 14:39:29 435.215
SO-50 28 Apr 14:30:00 14:33:20 20° 46° (NE) 14:36:38 436.795
AO-7 28 Apr 14:55:42 15:03:07 38° 61° (ENE) 15:10:31 .
DX 1 28 Apr 15:01:09 15:05:10 37° 289° (WNW) 15:09:10 434.975-435.025
Tancredo 1 28 Apr 15:03:04 15:06:10 75° 218° (SW) 15:09:15 437.200
SPROUT 28 Apr 15:04:50 15:06:59 14° 295° (WNW) 15:09:09 437.525
50 SAT 28 Apr 15:05:10 15:07:07 14° 293° (WNW) 15:09:04 437.505
ITUPSAT 1 28 Apr 15:09:11 15:11:24 13° 91° (E) 15:13:37 437.325
ITAMSAT 1 28 Apr 15:11:20 15:16:00 35° 69° (ENE) 15:20:40 435.822/435.867
Oscar 19 28 Apr 15:22:09 15:25:23 17° 268° (W) 15:28:38 437.125/150
Gurwin Techsat 1B 28 Apr 15:39:19 15:43:13 20° 267° (W) 15:47:06 435.225
MOZHAYETS 4 28 Apr 15:39:56 15:42:14 14° 91° (E) 15:44:32
ISS 28 Apr 15:39:57 15:43:02 40° 224° (SW) 15:46:06 437.550
BEESAT 2 28 Apr 15:59:12 16:01:42 16° 315° (NW) 16:04:13 435.950
UKube-1 28 Apr 16:01:38 16:03:38 13° 297° (WNW) 16:05:38 .
BEESAT 28 Apr 16:02:51 16:07:30 50° 100° (E) 16:12:07 436.000
SO-50 28 Apr 16:09:42 16:14:02 49° 243° (WSW) 16:18:22 436.795
RS-15 28 Apr 16:16:06 16:28:14 60° 51° (NE) 16:39:45 29.354- 29.394
YUBILEINY 28 Apr 16:22:55 16:31:44 88° 264° (W) 16:40:33 435.215
ITUPSAT 1 28 Apr 16:44:52 16:49:35 60° 287° (WNW) 16:54:18 437.325
AO-7 28 Apr 16:47:44 16:55:39 48° 259° (W) 17:03:36 .
ITAMSAT 1 28 Apr 16:51:08 16:55:28 27° 264° (W) 16:59:49 435.822/435.867
KKS-1 28 Apr 17:12:44 17:16:11 22° 95° (E) 17:19:37 437.445
MOZHAYETS 4 28 Apr 17:15:11 17:19:42 55° 286° (WNW) 17:24:12
DOVE 4 28 Apr 17:21:15 17:25:06 21° 66° (ENE) 17:28:53 437.250
STARS 28 Apr 17:38:49 17:41:47 18° 94° (E) 17:44:44 437.465
XW-2D 28 Apr 17:41:05 17:42:58 13° 67° (ENE) 17:44:51 145.860 - 145.880
BEESAT 28 Apr 17:41:49 17:44:51 17° 296° (WNW) 17:47:52 436.000
XW-2B 28 Apr 17:47:38 17:49:55 16° 68° (ENE) 17:52:11 145.730 - 145.750
KAITUO 1B 28 Apr 17:52:21 17:54:18 14° 67° (ENE) 17:56:16 145.475/437.950
XW-2C 28 Apr 17:58:58 18:01:51 21° 70° (ENE) 18:04:45 145.795 - 145.815
LilacSat-2 28 Apr 18:00:18 18:03:20 23° 70° (ENE) 18:06:22 437.200
NO-84 28 Apr 18:02:13 18:03:03 11° 124° (ESE) 18:03:51 435.350 FM
CUBESAT XI-V 28 Apr 18:11:44 18:16:28 82° 286° (WNW) 18:21:10 437.345
CUTE-I 28 Apr 18:13:30 18:18:24 38° 69° (ENE) 18:23:19 437.470
XW-2F 28 Apr 18:22:07 18:25:36 39° 73° (ENE) 18:29:06 145.980 - 146.000
YUBILEINY 28 Apr 18:22:25 18:27:10 16° 283° (WNW) 18:31:57 435.215
NUDT-PHONESAT 28 Apr 18:27:01 18:30:23 36° 73° (ENE) 18:33:47 437.300
RS-15 28 Apr 18:29:19 18:40:11 41° 254° (WSW) 18:50:37 29.354- 29.394
JUGNU 28 Apr 18:35:15 18:36:53 11° 179° (S) 18:38:30 437.505
KKS-1 28 Apr 18:48:50 18:52:45 31° 291° (WNW) 18:56:38 437.445
DOVE 4 28 Apr 18:57:16 19:02:23 49° 261° (W) 19:07:26 437.250
XW-2D 28 Apr 19:13:19 19:16:48 37° 262° (W) 19:20:19 145.860 - 145.880
STARS 28 Apr 19:14:13 19:18:14 37° 289° (WNW) 19:22:15 437.465
XW-2B 28 Apr 19:20:28 19:23:50 32° 263° (W) 19:27:13 145.730 - 145.750
CUBEBUG 2 28 Apr 19:22:55 19:25:01 13° 66° (ENE) 19:27:06 437.445
HO-68 28 Apr 19:24:10 19:30:59 50° 68° (ENE) 19:37:50 435.675
KAITUO 1B 28 Apr 19:24:37 19:28:00 35° 262° (W) 19:31:25 145.475/437.950
CUTE 1.7 + AOD 2 28 Apr 19:28:15 19:32:01 32° 71° (ENE) 19:35:48 437.475
XW-2C 28 Apr 19:32:58 19:35:56 22° 265° (W) 19:38:55 145.795 - 145.815
LilacSat-2 28 Apr 19:34:42 19:37:33 20° 265° (W) 19:40:26 437.200
XW-2A 28 Apr 19:35:22 19:38:27 35° 74° (ENE) 19:41:33 145.665 - 145.685
NO-84 28 Apr 19:36:25 19:40:14 79° 316° (NW) 19:43:44 435.350 FM
STRAND 1 28 Apr 19:41:10 19:44:25 17° 92° (E) 19:47:40 437.568
SEEDS 28 Apr 19:44:00 19:47:41 31° 71° (ENE) 19:51:25 437.485
CUTE-I 28 Apr 19:54:09 19:58:31 25° 265° (W) 20:02:53 437.470
ZACube-1 28 Apr 19:57:18 19:57:31 10° 64° (ENE) 19:57:46 437.345
XW-2F 28 Apr 19:58:29 19:59:55 12° 268° (W) 20:01:21 145.980 - 146.000
AO-73 28 Apr 20:02:16 20:03:01 10° 64° (ENE) 20:03:45 145.935
NUDT-PHONESAT 28 Apr 20:02:51 20:04:27 12° 268° (W) 20:06:03 437.300
Oscar 11 28 Apr 20:13:48 20:15:43 13° 64° (ENE) 20:17:37 .
O/OREOS (USA 219) 28 Apr 20:32:34 20:37:10 79° 69° (ENE) 20:41:42 437.305
UWE-3 28 Apr 20:38:56 20:43:06 56° 75° (ENE) 20:47:12 435.000/436.395/437.385
AAUSAT CUBESAT 2 28 Apr 20:44:31 20:48:38 76° 75° (ENE) 20:52:49 437.432
CUBEBUG 2 28 Apr 20:56:59 21:01:14 51° 260° (W) 21:05:22 437.445
CUTE 1.7 + AOD 2 28 Apr 21:04:52 21:07:54 19° 267° (W) 21:10:57 437.475
M-CUBED/EXP-1 PRIME 28 Apr 21:07:06 21:11:14 86° 108° (ESE) 21:14:59 437.505
DELFI C3 28 Apr 21:09:56 21:12:03 14° 66° (ENE) 21:14:10 145.870
XW-2A 28 Apr 21:10:55 21:11:21 10° 268° (W) 21:11:48 145.665 - 145.685
HO-68 28 Apr 21:12:51 21:18:54 29° 264° (W) 21:25:00 435.675
NO-84 28 Apr 21:16:31 21:18:11 13° 332° (NNW) 21:19:48 435.350 FM
OBJECT BX 28 Apr 21:17:40 21:18:44 11° 66° (ENE) 21:19:49 145.990 - 145.960
STRAND 1 28 Apr 21:18:56 21:23:53 53° 288° (WNW) 21:28:50 437.568
SEEDS 28 Apr 21:20:21 21:23:25 20° 266° (W) 21:26:29 437.485
ZACube-1 28 Apr 21:29:06 21:33:15 66° 259° (W) 21:37:23 437.345
AO-73 28 Apr 21:34:35 21:38:42 63° 259° (W) 21:42:49 145.935
Oscar 11 28 Apr 21:47:08 21:51:20 55° 260° (W) 21:55:35 .
AO-85 28 Apr 21:49:06 21:53:06 89° 61° (ENE) 21:57:18 145.980
SRMSAT 28 Apr 21:50:15 21:52:03 11° 182° (S) 21:53:51 437.500
UNISAT 6 28 Apr 22:15:20 22:17:00 12° 91° (E) 22:18:40 437.425
UWE-3 28 Apr 22:18:50 22:19:51 11° 269° (W) 22:20:53 435.000/436.395/437.385
PRISM 28 Apr 22:33:18 22:36:58 30° 97° (E) 22:40:35 437.425
BEESAT 3 28 Apr 22:34:11 22:38:05 49° 55° (NE) 22:41:57 437.485
BEESAT 2 28 Apr 22:38:52 22:42:08 23° 49° (NE) 22:45:21 435.950
DELFI C3 28 Apr 22:42:39 22:46:25 42° 261° (W) 22:50:15 145.870
OBJECT BX 28 Apr 22:48:31 22:52:00 44° 261° (W) 22:55:30 145.990 - 145.960
FO-29 28 Apr 22:56:24 23:00:59 29° 97° (E) 23:05:52 435.910
TIGRISAT 28 Apr 23:27:43 23:32:01 77° 103° (ESE) 23:36:22 435.000
ESTCUBE 1 28 Apr 23:32:35 23:36:47 40° 72° (ENE) 23:41:01 437.505/2401.250
VELOX 1 28 Apr 23:37:36 23:39:38 13° 63° (ENE) 23:41:39 145.980
LO-87 28 Apr 23:44:04 23:47:41 76° 258° (WSW) 23:51:20 145.935 - 145.965
UNISAT 6 28 Apr 23:49:47 23:54:00 54° 286° (WNW) 23:58:15 437.425
AIST 2D 28 Apr 23:50:44 23:52:58 16° 94° (E) 23:55:12 435.315
NANOSAT C BR1 29 Apr 00:01:32 00:02:22 10° 91° (E) 00:03:13 145.865
50 SAT 29 Apr 00:05:39 00:05:57 10° 65° (ENE) 00:06:15 437.505
PRISM 29 Apr 00:08:57 00:12:02 20° 293° (WNW) 00:15:06 437.425
BEESAT 3 29 Apr 00:13:18 00:15:14 13° 251° (WSW) 00:17:09 437.485
BEESAT 2 29 Apr 00:16:17 00:19:56 32° 246° (WSW) 00:23:31 435.950
SPROUT 29 Apr 00:19:30 00:23:17 32° 71° (ENE) 00:27:05 437.525
DX 1 29 Apr 00:21:00 00:23:22 14° 64° (ENE) 00:25:44 434.975-435.025
DUCHIFAT 1 29 Apr 00:27:57 00:31:03 20° 94° (E) 00:34:09 145.980
EO-79 29 Apr 00:28:36 00:32:06 25° 96° (E) 00:35:36 145.935-145.965
FO-29 29 Apr 00:41:28 00:46:05 32° 291° (WNW) 00:50:58 435.910
POLYITAN 1 29 Apr 01:08:06 01:12:17 76° 101° (E) 01:16:30 437.675
ESTCUBE 1 29 Apr 01:10:41 01:13:43 18° 267° (W) 01:16:48 437.505/2401.250
VELOX 1 29 Apr 01:11:09 01:15:32 60° 259° (W) 01:19:58 145.980
QB50P2 29 Apr 01:14:51 01:19:04 82° 284° (WNW) 01:23:17 145.880/145.840
UKube-1 29 Apr 01:16:55 01:20:57 39° 71° (ENE) 01:25:00 .
BUGSAT 1 29 Apr 01:19:31 01:22:45 23° 96° (E) 01:25:58 437.445
AIST 2D 29 Apr 01:23:11 01:26:11 26° 288° (WNW) 01:29:11 435.315
NANOSAT C BR1 29 Apr 01:34:19 01:38:25 57° 286° (WNW) 01:42:31 145.865
50 SAT 29 Apr 01:35:06 01:38:26 44° 260° (W) 01:41:49 437.505
Oscar 19 29 Apr 01:54:15 01:58:10 21° 94° (E) 02:02:03 437.125/150
DX 1 29 Apr 01:54:50 01:59:05 51° 259° (W) 02:03:23 434.975-435.025
SPROUT 29 Apr 01:56:04 01:59:14 20° 266° (W) 02:02:23 437.525
DUCHIFAT 1 29 Apr 02:03:05 02:06:44 30° 289° (WNW) 02:10:23 145.980
EO-79 29 Apr 02:04:21 02:07:46 24° 291° (WNW) 02:11:10 145.935-145.965
NO-84 29 Apr 02:11:58 02:14:38 30° 38° (NE) 02:17:11 435.350 FM
ITUPSAT 1 29 Apr 02:15:00 02:17:34 15° 63° (ENE) 02:20:08 437.325
Gurwin Techsat 1B 29 Apr 02:16:10 02:20:02 20° 93° (E) 02:23:53 435.225
PCSat 29 Apr 02:25:04 02:30:28 76° 116° (ESE) 02:35:54 145.827
MOZHAYETS 4 29 Apr 02:41:40 02:43:24 12° 63° (ENE) 02:45:07
UKube-1 29 Apr 02:54:19 02:57:07 17° 266° (W) 02:59:55 .
BUGSAT 1 29 Apr 02:54:47 02:58:02 24° 291° (WNW) 03:01:17 437.445
BEESAT 29 Apr 03:07:53 03:12:27 50° 72° (ENE) 03:17:03 436.000
ITAMSAT 1 29 Apr 03:27:01 03:29:17 13° 91° (E) 03:31:31 435.822/435.867
YUBILEINY 29 Apr 03:28:43 03:34:45 21° 80° (E) 03:40:47 435.215
Oscar 19 29 Apr 03:32:43 03:37:38 44° 290° (WNW) 03:42:32 437.125/150
NO-84 29 Apr 03:50:07 03:51:53 15° 234° (SW) 03:53:39 435.350 FM
ITUPSAT 1 29 Apr 03:50:12 03:54:52 59° 259° (W) 03:59:35 437.325
Gurwin Techsat 1B 29 Apr 03:55:06 04:00:12 47° 289° (WNW) 04:05:15 435.225
KKS-1 29 Apr 04:09:58 04:13:05 19° 66° (ENE) 04:16:12 437.445
PCSat 29 Apr 04:10:54 04:14:28 17° 314° (NW) 04:18:03 145.827
MOZHAYETS 4 29 Apr 04:15:26 04:19:57 67° 259° (WSW) 04:24:30
